Weather reports worldwide

Advertisment
Grünow, Germany (10289): temperature & dewpoint: 11.10.2018 08:00:00 - 17.10.2018 08:00:00 (CEST)Grünow, Germany (10289): temperature 5cm & temperature -5cm: 11.10.2018 08:00:00 - 17.10.2018 08:00:00 (CEST)Grünow, Germany (10289): temperature -20cm & temperature -100cm: 11.10.2018 08:00:00 - 17.10.2018 08:00:00 (CEST)Grünow, Germany (10289): wind speed & gusts: 11.10.2018 08:00:00 - 17.10.2018 08:00:00 (CEST)Grünow, Germany (10289): wind direction: 11.10.2018 08:00:00 - 17.10.2018 08:00:00 (CEST)Grünow, Germany (10289): reduced air pressure: 11.10.2018 08:00:00 - 17.10.2018 08:00:00 (CEST)Grünow, Germany (10289): visibility: 11.10.2018 08:00:00 - 17.10.2018 08:00:00 (CEST)Grünow, Germany (10289): sunshine duration: 11.10.2018 08:00:00 - 17.10.2018 08:00:00 (CEST)Grünow, Germany (10289): precipitation: 11.10.2018 08:00:00 - 17.10.2018 08:00:00 (CEST)
Date & Time tt [°C] td [°C] tt 5cm [°C] tt -5cm [°C] tt -20cm [°C] tt -100cm [°C] ff [km/h] ff [kn] fx [km/h] fx [kn] dd ppp [hPa] vv [km] sd [min] rr [mm]
17.10.2018 08:00:00 5,9 5,5 4,3 8,9 12,5 14,0 2 1 6 3 W 1020,1 2,6 0 0,0
17.10.2018 07:00:00 5,3 4,4 3,3 9,3 12,7 14,0 2 1 8 4 W 1019,7 3,3 0 0,0
17.10.2018 06:00:00 6,5 5,7 4,9 9,5 12,8 14,0 0 0 5 3 N 1019,4 6 0 0,0
17.10.2018 05:00:00 6,9 5,3 4,9 9,8 13,0 14,0 3 1 7 4 N 1019,3 7 0 0,0
17.10.2018 04:00:00 6,9 5,4 4,3 10,2 13,2 14,0 0 0 11 6 N 1019,3 10 0 0,0
17.10.2018 03:00:00 8,6 7,3 6,8 10,6 13,3 14,0 6 3 8 5 S 1019,4 11 0 0,0
17.10.2018 02:00:00 7,8 5,4 6,1 10,9 13,5 14,0 5 3 9 5 SSW 1019,5 15 0 0,0
17.10.2018 01:00:00 11,2 7,2 9,4 11,3 13,7 14,0 8 5 10 5 SE 1019,5 17 0 0,0
17.10.2018 00:00:00 10,5 7,2 6,4 11,8 13,9 14,0 4 2 6 3 WNW 1019,6 16 0 0,0
16.10.2018 23:00:00 10,2 6,8 7,4 12,4 14,1 14,0 3 2 9 5 SW 1019,8 17 0 0,0
16.10.2018 22:00:00 12,3 7,4 8,1 13,0 14,2 14,0 3 2 5 3 SW 1019,6 23 0 0,0
16.10.2018 21:00:00 14,0 7,7 9,7 13,7 14,4 14,1 4 2 9 5 SSW 1019,7 21 0 0,0
16.10.2018 20:00:00 13,9 7,4 11,1 14,7 14,4 14,1 8 4 11 6 S 1019,5 27 0 0,0
16.10.2018 19:00:00 15,9 7,8 13,2 15,8 14,5 14,1 10 5 12 6 SSE 1019,1 27 0 0,0
16.10.2018 18:00:00 17,3 7,9 15,2 17,3 14,3 14,1 9 5 11 6 SSE 1018,8 30 29 0,0
16.10.2018 17:00:00 19,7 7,9 20,0 18,7 14,1 14,1 8 5 13 7 SSE 1018,4 30 60 0,0
16.10.2018 16:00:00 20,5 7,1 22,3 19,4 13,7 14,1 9 5 15 8 SSE 1018,4 26 60 0,0
16.10.2018 15:00:00 20,6 6,6 23,4 19,2 13,3 14,1 7 4 14 8 SSE 1018,5 24 60 0,0
16.10.2018 14:00:00 20,0 7,0 22,9 18,1 13,0 14,1 7 4 14 7 SSE 1018,5 23 60 0,0
16.10.2018 13:00:00 18,7 6,9 21,9 16,3 12,7 14,1 8 5 13 7 S 1018,5 21 60 0,0
16.10.2018 12:00:00 17,0 7,2 19,9 13,7 12,5 14,1 8 4 13 7 S 1018,9 21 60 0,0
16.10.2018 11:00:00 15,4 6,9 14,9 11,8 12,5 14,1 6 3 13 7 S 1018,7 26 60 0,0
16.10.2018 10:00:00 13,0 7,1 13,7 10,1 12,6 14,1 11 6 14 8 SSE 1018,7 25 60 0,0
16.10.2018 09:00:00 10,3 5,9 8,4 9,5 12,7 14,1 9 5 12 7 SSE 1018,5 19 34 0,0
16.10.2018 08:00:00 7,5 4,9 4,0 9,4 12,9 14,1 0 0 10 6 N 1018,2 17 0 0,0
16.10.2018 07:00:00 7,3 4,2 3,9 9,8 13,0 14,1 3 2 11 6 NW 1017,8 16 0 0,0
16.10.2018 06:00:00 9,4 4,7 6,3 10,1 13,2 14,1 10 5 15 8 SSE 1017,6 20 0 0,0
16.10.2018 05:00:00 9,6 4,7 7,1 10,3 13,4 14,1 10 5 15 8 SSE 1017,3 19 0 0,0
16.10.2018 04:00:00 10,1 5,3 7,2 10,5 13,5 14,1 7 4 9 5 SSE 1017,2 18 0 0,0
16.10.2018 03:00:00 9,4 4,5 5,3 11,0 13,7 14,0 2 1 11 6 WSW 1017,2 23 0 0,0
16.10.2018 02:00:00 11,6 4,7 8,2 11,4 13,9 14,0 8 4 14 8 SSE 1016,9 26 0 0,0
16.10.2018 01:00:00 12,4 4,9 10,1 11,7 14,1 14,0 9 5 14 7 SSE 1016,9 25 0 0,0
16.10.2018 00:00:00 10,9 4,6 7,7 12,1 14,2 14,0 5 3 9 5 S 1017,0 23 0 0,0
15.10.2018 23:00:00 12,2 4,8 8,5 12,8 14,4 14,0 8 4 13 7 SSE 1016,9 24 0 0,0
15.10.2018 22:00:00 14,6 4,9 12,0 13,4 14,6 14,0 12 7 14 8 SSE 1016,6 27 0 0,0
15.10.2018 21:00:00 15,2 5,0 12,7 14,1 14,7 14,0 10 5 15 8 SSE 1016,7 27 0 0,0
15.10.2018 20:00:00 14,9 5,2 12,7 14,9 14,8 14,0 10 6 16 9 SSE 1016,7 26 0 0,0
15.10.2018 19:00:00 16,0 5,4 13,4 16,0 14,8 14,0 9 5 13 7 SSE 1016,4 29 0 0,0
15.10.2018 18:00:00 18,0 5,9 15,8 17,5 14,7 14,0 10 5 16 8 SSE 1015,9 31 52 0,0
15.10.2018 17:00:00 20,3 5,6 20,8 18,8 14,5 14,0 12 6 30 16 S 1015,8 31 60 0,0
15.10.2018 16:00:00 21,0 4,9 23,1 19,0 14,2 14,0 26 14 35 19 SSE 1015,6 25 56 0,0
15.10.2018 15:00:00 20,7 5,4 23,1 18,9 13,9 14,0 25 13 34 18 SSE 1015,9 23 60 0,0
15.10.2018 14:00:00 20,2 5,9 22,9 17,3 13,7 14,0 23 12 29 16 SSE 1016,1 24 46 0,0
15.10.2018 13:00:00 18,5 5,9 20,6 15,9 13,5 14,0 19 10 25 13 SSE 1015,9 29 40 0,0
15.10.2018 12:00:00 18,3 5,7 20,2 14,6 13,4 14,0 18 10 27 15 SSE 1016,0 33 59 0,0
15.10.2018 11:00:00 16,7 5,4 16,1 13,2 13,4 14,0 19 10 27 14 S 1016,3 28 58 0,0
15.10.2018 10:00:00 15,0 5,4 15,6 11,7 13,5 14,0 17 9 26 14 SSE 1016,0 25 60 0,0
15.10.2018 09:00:00 12,9 5,2 11,3 11,4 13,6 14,0 15 8 23 12 SSE 1015,9 32 59 0,0
15.10.2018 08:00:00 11,8 5,0 9,9 11,5 13,7 14,0 14 7 22 12 SSE 1015,7 32 0 0,0
15.10.2018 07:00:00 12,0 5,2 10,2 11,8 13,8 14,0 14 7 26 14 SSE 1015,5 34 0 0,0
15.10.2018 06:00:00 12,5 5,4 11,3 12,0 14,0 14,0 15 8 26 14 SE 1015,4 32 0 0,0
15.10.2018 05:00:00 13,0 5,8 11,3 12,3 14,1 14,0 16 9 23 12 SE 1015,5 33 0 0,0
15.10.2018 04:00:00 13,6 5,9 12,1 12,7 14,2 14,0 16 8 29 16 SE 1015,4 29 0 0,0
15.10.2018 03:00:00 14,2 6,1 12,6 13,1 14,3 14,0 20 11 28 15 SE 1015,2 36 0 0,0
15.10.2018 02:00:00 15,1 5,8 13,3 13,4 14,5 14,0 21 11 32 17 SSE 1015,0 37 0 0,0
15.10.2018 01:00:00 15,6 6,6 14,0 13,7 14,6 14,0 24 13 32 18 SSE 1014,9 33 0 0,0
15.10.2018 00:00:00 15,6 7,5 13,9 14,1 14,7 14,0 20 11 27 15 SSE 1014,9 28 0 0,0
14.10.2018 23:00:00 16,3 7,8 14,7 14,5 14,8 14,0 21 11 26 14 SE 1014,9 29 0 0,0
14.10.2018 22:00:00 17,2 8,2 15,5 14,9 14,9 14,0 20 11 29 16 SSE 1015,1 26 0 0,0
14.10.2018 21:00:00 17,6 8,5 16,0 15,4 15,0 14,0 17 9 23 12 SE 1014,9 26 0 0,0
14.10.2018 20:00:00 18,3 8,0 16,7 16,0 15,0 14,0 11 6 22 12 SE 1015,0 21 0 0,0
14.10.2018 19:00:00 19,0 7,4 17,6 16,9 15,0 14,0 16 8 21 12 SE 1015,0 36 0 0,0
14.10.2018 18:00:00 20,8 7,3 19,3 18,2 14,9 14,0 13 7 36 20 SSE 1015,0 37 60 0,0
14.10.2018 17:00:00 22,5 6,9 22,6 19,3 14,7 14,0 27 14 49 27 SSE 1014,8 35 60 0,0
14.10.2018 16:00:00 22,8 7,3 23,9 19,6 14,4 14,0 32 17 46 25 SSE 1014,7 24 60 0,0
14.10.2018 15:00:00 22,4 7,2 24,2 19,5 14,0 14,0 36 19 48 26 SSE 1015,2 18 60 0,0
14.10.2018 14:00:00 22,1 7,9 23,9 18,4 13,7 13,9 29 16 50 27 SSE 1015,8 20 60 0,0
14.10.2018 13:00:00 20,5 7,5 22,6 17,0 13,5 13,9 36 19 49 27 S 1016,6 17 60 0,0
14.10.2018 12:00:00 18,8 8,7 20,7 14,9 13,4 13,9 25 14 34 18 SSE 1017,0 20 60 0,0
14.10.2018 11:00:00 16,8 8,6 15,9 13,2 13,3 13,9 21 11 33 18 SE 1017,6 20 60 0,0
14.10.2018 10:00:00 14,3 8,3 15,0 11,6 13,4 13,9 18 10 34 18 SE 1017,9 16 60 0,0
14.10.2018 09:00:00 11,6 8,0 10,4 11,2 13,6 13,9 14 7 21 11 ESE 1018,0 12 58 0,0
14.10.2018 08:00:00 9,7 7,6 8,6 11,3 13,7 13,9 15 8 22 12 ESE 1018,3 10 0 0,0
14.10.2018 07:00:00 10,4 7,7 9,3 11,6 13,9 13,9 13 7 20 11 SE 1018,5 10 0 0,0
14.10.2018 06:00:00 11,1 8,0 9,9 12,0 14,0 13,9 16 9 25 13 SE 1018,9 11 0 0,0
14.10.2018 05:00:00 11,3 8,3 10,4 12,4 14,1 13,9 16 9 24 13 SE 1019,4 11 0 0,0
14.10.2018 04:00:00 12,2 8,7 11,1 12,7 14,3 13,9 16 9 25 13 SE 1019,9 12 0 0,0
14.10.2018 03:00:00 13,0 9,0 11,9 13,1 14,4 13,9 18 10 26 14 SE 1020,5 13 0 0,0
14.10.2018 02:00:00 14,1 9,4 12,8 13,4 14,6 13,9 18 10 26 14 SE 1020,8 14 0 0,0
14.10.2018 01:00:00 14,3 9,5 13,1 13,7 14,7 13,9 16 9 24 13 SE 1021,3 15 0 0,0
14.10.2018 00:00:00 14,3 9,4 13,1 14,1 14,9 13,9 12 6 17 9 SE 1021,5 14 0 0,0
13.10.2018 23:00:00 14,8 9,5 13,7 14,7 15,0 13,8 15 8 21 12 ESE 1021,8 18 0 0,0
13.10.2018 22:00:00 16,1 9,6 14,7 15,2 15,1 13,8 13 7 22 12 SE 1022,1 12 0 0,0
13.10.2018 21:00:00 16,9 9,5 15,6 15,8 15,2 13,8 15 8 25 13 SE 1022,1 20 0 0,0
13.10.2018 20:00:00 17,6 9,6 16,4 16,6 15,3 13,8 16 9 20 11 ESE 1022,4 22 0 0,0
13.10.2018 19:00:00 18,6 9,9 17,0 17,8 15,3 13,8 13 7 16 9 ESE 1022,6 18 7 0,0
13.10.2018 18:00:00 21,4 10,5 20,5 19,4 15,2 13,8 8 4 20 11 SE 1022,6 25 60 0,0
13.10.2018 17:00:00 23,2 10,7 23,8 20,7 14,9 13,8 16 8 27 15 SSE 1022,9 23 60 0,0
13.10.2018 16:00:00 24,3 10,6 26,0 21,2 14,5 13,8 19 10 27 15 S 1023,0 23 60 0,0
13.10.2018 15:00:00 24,0 9,7 26,2 21,0 14,1 13,8 21 12 29 16 S 1023,3 24 60 0,0
13.10.2018 14:00:00 23,6 10,8 26,1 19,9 13,7 13,8 21 11 31 17 SSE 1024,0 23 60 0,0
13.10.2018 13:00:00 21,9 11,0 24,6 18,1 13,4 13,8 17 9 23 13 SE 1024,4 16 60 0,0
13.10.2018 12:00:00 19,6 11,0 22,6 15,4 13,2 13,8 12 7 19 10 S 1025,0 13 60 0,0
13.10.2018 11:00:00 17,3 10,7 16,5 13,6 13,2 13,8 11 6 18 10 SSE 1025,1 14 60 0,0
13.10.2018 10:00:00 14,8 10,1 15,8 11,8 13,3 13,8 14 8 17 9 SSE 1025,3 11 60 0,0
13.10.2018 09:00:00 12,8 9,4 11,2 11,3 13,4 13,8 6 3 18 10 SE 1025,5 9 60 0,0
13.10.2018 08:00:00 10,9 8,9 9,8 11,3 13,5 13,8 11 6 16 9 SE 1025,1 7 6 0,0
13.10.2018 07:00:00 11,1 9,1 9,4 11,5 13,7 13,8 13 7 15 8 SSE 1025,0 8 0 0,0
13.10.2018 06:00:00 11,5 9,4 9,7 11,9 13,8 13,8 5 3 13 7 ESE 1024,8 9 0 0,0
13.10.2018 05:00:00 12,1 9,4 9,4 12,3 13,9 13,7 8 5 19 11 SSE 1024,8 10 0 0,0
13.10.2018 04:00:00 12,4 9,6 9,1 12,6 14,1 13,7 8 4 16 9 SSE 1024,7 10 0 0,0
13.10.2018 03:00:00 13,7 9,8 12,5 12,9 14,2 13,7 8 4 16 8 SE 1024,5 12 0 0,0
13.10.2018 02:00:00 13,4 9,7 10,9 13,3 14,4 13,7 9 5 16 9 SSE 1024,7 13 0 0,0
13.10.2018 01:00:00 14,3 9,9 12,4 13,7 14,5 13,7 11 6 14 8 SSE 1024,4 13 0 0,0
13.10.2018 00:00:00 15,6 10,1 14,0 14,3 14,6 13,7 11 6 19 10 SE 1024,2 17 0 0,0
12.10.2018 23:00:00 17,5 10,4 16,1 14,6 14,7 13,7 16 9 21 11 SE 1024,3 20 0 0,0
12.10.2018 22:00:00 16,9 10,2 15,3 14,9 14,9 13,7 13 7 16 9 SE 1024,4 20 0 0,0
12.10.2018 21:00:00 17,0 10,3 15,1 15,4 15,0 13,7 10 5 13 7 SSE 1024,4 21 0 0,0
12.10.2018 20:00:00 17,2 10,0 14,6 16,2 15,1 13,7 6 3 12 6 S 1024,2 22 0 0,0
12.10.2018 19:00:00 18,5 10,0 15,9 17,6 15,1 13,7 12 7 18 10 SSE 1023,6 28 9 0,0
12.10.2018 18:00:00 20,9 10,5 19,8 19,2 14,9 13,7 14 7 20 11 SSE 1023,0 26 60 0,0
12.10.2018 17:00:00 22,8 10,5 23,6 20,4 14,7 13,7 14 8 23 13 SSE 1022,8 24 60 0,0
12.10.2018 16:00:00 23,0 10,5 25,0 20,9 14,3 13,7 17 9 27 14 SSE 1022,7 22 60 0,0
12.10.2018 15:00:00 22,6 10,2 25,1 20,8 13,9 13,7 18 10 26 14 S 1022,6 19 60 0,0
12.10.2018 14:00:00 22,1 10,7 24,8 19,8 13,5 13,7 14 8 23 12 SSE 1022,6 21 60 0,0
12.10.2018 13:00:00 20,9 10,4 24,0 17,9 13,2 13,7 14 8 22 12 SSE 1022,7 22 60 0,0
12.10.2018 12:00:00 18,9 10,3 21,5 15,4 13,1 13,7 14 8 26 14 S 1023,1 20 60 0,0
12.10.2018 11:00:00 17,2 10,2 16,6 13,7 13,0 13,7 21 11 27 15 SSE 1022,4 19 60 0,0
12.10.2018 10:00:00 15,2 9,9 16,2 12,0 13,1 13,7 16 9 30 16 SSE 1022,1 18 60 0,0
12.10.2018 09:00:00 13,1 9,0 12,1 11,7 13,2 13,6 21 11 29 16 SE 1021,3 16 60 0,0
12.10.2018 08:00:00 12,2 8,8 11,0 11,7 13,3 13,6 18 10 27 14 SE 1021,0 16 4 0,0
12.10.2018 07:00:00 12,3 8,9 10,8 12,0 13,4 13,6 17 9 29 16 SE 1020,5 16 0 0,0
12.10.2018 06:00:00 12,7 9,0 11,7 12,2 13,5 13,6 17 9 25 13 SE 1020,2 16 0 0,0
12.10.2018 05:00:00 13,4 9,3 12,2 12,5 13,6 13,6 18 10 25 13 SE 1020,1 16 0 0,0
12.10.2018 04:00:00 13,5 9,4 12,5 12,7 13,7 13,6 16 9 26 14 SE 1019,8 15 0 0,0
12.10.2018 03:00:00 13,9 9,8 12,7 13,0 13,8 13,6 18 10 27 15 SE 1019,5 14 0 0,0
12.10.2018 02:00:00 14,1 10,1 13,2 13,3 13,9 13,6 20 11 26 14 ESE 1019,4 15 0 0,0
12.10.2018 01:00:00 14,6 10,3 13,5 13,7 14,0 13,6 19 10 25 13 ESE 1019,4 14 0 0,0
12.10.2018 00:00:00 15,7 10,4 14,6 14,1 14,1 13,6 17 9 31 17 SE 1019,3 16 0 0,0
11.10.2018 23:00:00 16,3 10,3 15,2 14,5 14,2 13,6 18 10 31 17 SE 1019,1 17 0 0,0
11.10.2018 22:00:00 16,3 9,7 15,2 15,0 14,3 13,6 21 11 27 14 ESE 1018,7 20 0 0,0
11.10.2018 21:00:00 18,1 9,5 17,0 15,5 14,4 13,6 19 10 29 15 SE 1018,7 24 0 0,0
11.10.2018 20:00:00 18,9 9,5 17,6 16,1 14,4 13,6 15 8 29 16 SE 1018,5 17 0 0,0
11.10.2018 19:00:00 19,9 9,8 18,7 17,0 14,4 13,6 18 10 26 14 SE 1018,1 24 7 0,0
11.10.2018 18:00:00 21,4 9,8 20,4 18,4 14,2 13,6 13 7 24 13 SE 1018,1 24 60 0,0
11.10.2018 17:00:00 23,1 9,0 23,7 19,5 13,9 13,6 17 9 36 19 SE 1017,8 24 60 0,0
11.10.2018 16:00:00 23,3 8,7 24,6 19,8 13,6 13,6 25 13 39 21 SSE 1018,1 25 60 0,0
11.10.2018 15:00:00 22,9 9,2 24,5 19,5 13,2 13,6 23 12 36 19 SE 1018,3 19 60 0,0
11.10.2018 14:00:00 21,6 10,1 23,1 18,5 12,9 13,6 23 12 36 19 ESE 1018,9 21 60 0,0
11.10.2018 13:00:00 20,0 10,2 21,6 16,9 12,6 13,6 25 13 36 20 SE 1019,6 16 60 0,0
11.10.2018 12:00:00 18,8 10,7 20,2 14,6 12,4 13,6 22 12 35 19 SE 1019,8 16 60 0,0
11.10.2018 11:00:00 16,6 10,6 15,9 13,0 12,3 13,6 17 9 27 14 SE 1020,5 13 60 0,0
11.10.2018 10:00:00 14,4 10,4 14,9 11,3 12,4 13,6 16 9 26 14 ESE 1020,4 9 60 0,0
11.10.2018 09:00:00 12,1 9,9 11,1 10,9 12,5 13,6 14 7 22 12 ESE 1020,3 6 60 0,0
11.10.2018 08:00:00 11,0 9,5 9,8 10,9 12,6 13,6 16 9 25 14 ESE 1020,3 6 3 0,0

tt = temperature
td = dewpoint
tt 5cm = temperature 5cm
tt -5cm = temperature -5cm
tt -20cm = temperature -20cm
tt -100cm = temperature -100cm
ff = wind speed
fx = gusts
dd = wind direction
ppp = reduced air pressure
vv = visibility
sd = sunshine duration
rr = precipitation

Next stations